LANDSAT 9

Last updated on Thu Jul 03 2025 00:02:30 GMT+0000 (Coordinated Universal Time)

1 49260U 21088A 25183.46286509 .00000258 00000+0 67406-4 0 9990 2 49260 98.2272 253.7507 0001493 94.1853 265.9516 14.57108475200074
UTC large
Height (km)
Speed (km/s)
/
Latitude / Longitude
Inclination (degrees)
Orbital Period (minutes)
Azimuth
Elevation
Range (km)
Doppler Factor

Next 0 passes for location: London (51.5072 / 0.1276)

Sorry there are no passes over London.